Tracking 20242 objects as of 24-Jan-2020
HD Live streaming from Space Station
objects crossing your sky now

FENGYUN 1C DEB

Track FENGYUN 1C DEB now!
10-day predictions


NORAD ID: 30859
Int'l Code: 1999-025AWV
Perigee: 799.6 km
Apogee: 880.9 km
Inclination: 98.9 °
Period: 101.6 minutes
Semi major axis: 7211 km
RCS: 0.0174 m2 (small)
Launch date: May 10, 1999
Source: People's Republic of China (PRC)
Launch site: Taiyaun Space Center, China (TSC)

Note: This is SATELLITE DEBRIS
aabbcc
Your satellite tracking list
Your tracking list is empty




NASA's NSSDC Master Catalog

Two Line Element Set (TLE):
1 30859U 99025AWV 20023.40572065  .00001038  00000-0  52311-3 0  9993
2 30859  98.9106   0.4900 0056361 130.8321 229.7760 14.17708384664150
Source of the keplerian elements: AFSPC